Simultaneous Nadir Overpasses (SNOs) Predictions

Prediction of SNOs between AQUA and NOAA-19 Satellite Orbit:

Table of predicted SNOs for the next 14.0 days since TLE Epoch: 5/8/2021
Index Date (AQUA) Time (AQUA) Lat,Lon (AQUA) SZA (AQUA ) Date (NOAA-19) Time (NOAA-19) Lat,Lon (NOAA-19) SZA (NOAA-19 ) Distance(km) Time Diff (sec)
1 05/09/2021 00:11:36 -78.91, -26.07 117.63 05/09/2021 00:10:35 -78.88, -26.02 117.63 2.95 61
2 05/09/2021 01:01:03 78.91, 141.53 62.38 05/09/2021 01:01:37 78.90, 141.40 62.37 3.04 34
3 05/11/2021 06:34:47 -78.91,-121.91 118.21 05/11/2021 06:34:45 -78.90,-121.80 118.22 2.55 2
4 05/13/2021 12:08:30 78.86, -25.04 61.17 05/13/2021 12:07:59 78.90, -25.08 61.21 3.86 31
5 05/13/2021 12:57:58 -78.93, 142.23 118.76 05/13/2021 12:58:55 -78.92, 142.40 118.79 3.60 57
6 05/15/2021 17:42:14 -78.86, 71.53 119.37 05/15/2021 17:41:07 -78.87, 71.49 119.34 0.92 67
7 05/15/2021 18:31:41 78.88,-120.94 60.66 05/15/2021 18:32:10 78.89,-121.05 60.67 2.87 29
8 05/18/2021 00:05:25 -78.88, -24.36 119.85 05/18/2021 00:05:17 -78.88, -24.32 119.85 1.03 8
9 05/20/2021 05:39:08 78.85, 72.39 59.64 05/20/2021 05:38:32 78.87, 72.34 59.68 2.79 36



Historial Predications of SNOs between AQUA and NOAA-19
